Location: Banff
(51.1667°N, 115.5667°W)
Time: 04:22:39
(UTC+00:00)

Explorer 7 - Pass Details

Date: 28 November 2020
Orbit: 484 x 678 km, 50.3° (Epoch: 16 January)

Event Time Altitude Azimuth Distance (km) Brightness Sun altitude
Exits shadow 12:39:35 71° 117° (ESE) 589 7.0 -24.4°
Drops below altitude 10° 12:43:15 10° 93° (E) 1,784 10.5 -23.8°
Sets 12:45:24 0° 93° (E) 2,645 11.8 -23.5°
